KN6ZYR Weather Reports


time (UTC)temp
F
wind
direction
speed
knots
gust
knots
rain 1hr
in
rain 24hr
in
rain mn
in
humidity
%
barometer
mb
20260506114233 50 293 0.9 0.9 0.00 0.00 0.00 71 1021.3
20260506113731 50 333 2.6 2.6 0.00 0.00 0.00 72 1021.5
20260506113228 50 253 0.9 0.9 0.00 0.00 0.00 72 1021.2
20260506112724 50 305 1.7 2.6 0.00 0.00 0.00 71 1021.3
20260506112222 50 349 3.5 4.3 0.00 0.00 0.00 70 1021.6
20260506111720 51 61 0.0 0.0 0.00 0.00 0.00 69 1021.5
20260506111218 51 313 0.9 0.9 0.00 0.00 0.00 69 1021.3
20260506110714 51 312 0.9 0.9 0.00 0.00 0.00 68 1021.3
20260506110212 52 341 1.7 1.7 0.00 0.00 0.00 67 1021.4
20260506105708 52 348 3.5 5.2 0.00 0.00 0.00 66 1021.3
20260506105205 53 339 0.9 1.7 0.00 0.00 0.00 64 1021.2
20260506104704 53 330 3.5 4.3 0.00 0.00 0.00 63 1021.3
20260506104201 54 5 1.7 1.7 0.00 0.00 0.00 62 1020.9
20260506103658 53 307 2.6 2.6 0.00 0.00 0.00 63 1020.8
20260506103155 54 353 3.5 4.3 0.00 0.00 0.00 63 1020.9
20260506102653 54 313 4.3 6.1 0.00 0.00 0.00 63 1021.0
20260506102150 54 336 2.6 2.6 0.00 0.00 0.00 63 1021.0
20260506101647 54 333 2.6 2.6 0.00 0.00 0.00 64 1020.7
20260506101144 54 308 2.6 2.6 0.00 0.00 0.00 63 1020.6
20260506100642 52 331 1.7 1.7 0.00 0.00 0.00 68 1020.9
20260506100140 52 255 1.7 1.7 0.00 0.00 0.00 72 1020.7
20260506095638 52 319 1.7 2.6 0.00 0.00 0.00 72 1020.7
20260506095134 51 2 2.6 4.3 0.00 0.00 0.00 73 1021.0
20260506094632 51 332 0.0 0.0 0.00 0.00 0.00 72 1020.8
20260506094130 52 58 0.0 0.0 0.00 0.00 0.00 71 1020.9
20260506093628 52 6 1.7 1.7 0.00 0.00 0.00 69 1020.8
20260506093125 52 102 0.0 0.0 0.00 0.00 0.00 71 1020.7
20260506092623 52 102 0.9 0.9 0.00 0.00 0.00 70 1020.9
20260506092119 51 98 0.0 0.9 0.00 0.00 0.00 71 1020.7
20260506091617 51 93 0.0 0.9 0.00 0.00 0.00 72 1021.0
20260506091115 52 93 0.0 0.0 0.00 0.00 0.00 72 1020.8
20260506090613 52 93 0.0 0.9 0.00 0.00 0.00 71 1020.7
20260506090108 51 1 0.0 0.0 0.00 0.00 0.00 72 1020.9
20260506085605 52 356 0.9 1.7 0.00 0.00 0.00 71 1020.7
20260506085102 52 278 0.0 0.0 0.00 0.00 0.00 70 1020.7
20260506084559 53 278 0.9 0.9 0.00 0.00 0.00 70 1020.9
20260506084055 53 288 0.0 0.0 0.00 0.00 0.00 67 1020.6
20260506083552 53 314 1.7 1.7 0.00 0.00 0.00 66 1020.9
20260506083050 53 16 0.9 0.9 0.00 0.00 0.00 67 1020.6
20260506082546 53 337 1.7 1.7 0.00 0.00 0.00 69 1020.7
20260506082042 53 346 1.7 1.7 0.00 0.00 0.00 68 1020.6
20260506081540 53 347 0.9 0.9 0.00 0.00 0.00 66 1020.5
20260506081037 54 326 0.9 2.6 0.00 0.00 0.00 66 1020.5
20260506080535 55 284 1.7 2.6 0.00 0.00 0.00 58 1020.6
20260506073519 54 345 3.5 4.3 0.00 0.00 0.00 61 1020.7
20260506073015 54 356 0.9 1.7 0.00 0.00 0.00 66 1020.6
20260506072512 54 285 2.6 4.3 0.00 0.00 0.00 66 1020.6
20260506072010 54 244 0.9 1.7 0.00 0.00 0.00 67 1020.6
20260506071508 54 270 1.7 1.7 0.00 0.00 0.00 67 1020.4
20260506071005 53 303 0.9 0.9 0.00 0.00 0.00 69 1020.1
20260506070502 53 316 1.7 1.7 0.00 0.00 0.00 71 1020.4
20260506062439 52 311 0.0 0.0 0.00 0.12 0.12 70 1020.0
20260506061935 52 355 0.9 1.7 0.00 0.12 0.12 70 1020.0
20260506061432 52 275 0.0 0.0 0.00 0.12 0.12 70 1020.1
20260506060930 52 275 0.0 0.0 0.00 0.12 0.12 69 1020.0
20260506060428 52 273 0.0 0.9 0.00 0.12 0.12 70 1020.1
20260506051400 53 263 0.0 0.0 0.00 0.12 0.12 68 1019.3
20260506050857 53 263 0.0 0.0 0.00 0.12 0.12 67 1019.6
20260506050354 53 263 1.7 1.7 0.00 0.12 0.12 68 1019.5
20260506044845 54 316 1.7 2.6 0.00 0.12 0.12 65 1019.5
20260506044343 53 244 0.9 1.7 0.00 0.12 0.12 67 1019.2
20260506043839 54 264 0.9 0.9 0.00 0.12 0.12 68 1019.1
20260506043337 54 266 0.9 0.9 0.00 0.12 0.12 68 1019.0
20260506042835 55 265 0.9 0.9 0.00 0.12 0.12 67 1019.0
20260506042334 55 269 0.9 0.9 0.00 0.12 0.12 67 1019.0
20260506041832 55 310 3.5 4.3 0.00 0.12 0.12 65 1018.5
20260506041329 55 302 2.6 2.6 0.00 0.12 0.12 64 1018.8
20260506040826 55 343 3.5 4.3 0.00 0.12 0.12 63 1018.8
20260506040323 55 344 2.6 2.6 0.00 0.12 0.12 66 1018.7
20260506035819 55 285 4.3 5.2 0.00 0.12 0.12 67 1018.4
20260506035317 55 279 0.9 1.7 0.00 0.12 0.12 65 1018.4
20260506034814 56 297 1.7 1.7 0.00 0.12 0.12 64 1018.4
20260506034311 56 275 1.7 2.6 0.00 0.12 0.12 63 1018.2
20260506033808 56 270 0.9 1.7 0.00 0.12 0.12 61 1018.0
20260506033305 56 286 3.5 4.3 0.00 0.12 0.12 62 1018.0
20260506032802 57 268 1.7 4.3 0.00 0.12 0.12 62 1018.0
20260506032259 57 304 4.3 5.2 0.00 0.12 0.12 60 1017.9
20260506031755 57 291 3.5 4.3 0.00 0.12 0.12 59 1018.0
20260506031253 57 292 5.2 7.0 0.00 0.12 0.12 57 1017.6
20260506030751 58 293 4.3 5.2 0.00 0.12 0.12 55 1017.6
20260506030248 58 289 2.6 2.6 0.00 0.12 0.12 54 1017.4
20260506025745 59 318 2.6 2.6 0.00 0.12 0.12 53 1017.2
20260506025241 59 327 2.6 2.6 0.00 0.12 0.12 53 1017.3
20260506024738 59 331 2.6 2.6 0.00 0.12 0.12 51 1017.2
20260506024235 60 279 2.6 4.3 0.00 0.12 0.12 50 1017.2
20260506023731 60 303 1.7 1.7 0.00 0.12 0.12 50 1017.1
20260506023228 60 301 0.9 1.7 0.00 0.12 0.12 49 1016.8
20260506022725 60 322 2.6 4.3 0.00 0.12 0.12 49 1016.7
20260506022223 61 309 4.3 6.1 0.00 0.12 0.12 48 1017.0
20260506021721 61 304 0.9 1.7 0.00 0.12 0.12 46 1016.7
20260506021218 61 2 4.3 6.1 0.00 0.12 0.12 44 1016.8
20260506020714 61 251 1.7 1.7 0.00 0.12 0.12 46 1016.8
20260506020212 61 350 2.6 2.6 0.00 0.12 0.12 45 1016.6
20260506015709 61 327 3.5 4.3 0.00 0.12 0.12 44 1017.0
20260506015207 61 296 6.1 7.8 0.00 0.12 0.12 43 1016.7
20260506014704 62 346 7.0 8.7 0.00 0.12 0.12 42 1016.7
20260506014159 62 340 4.3 7.0 0.00 0.12 0.12 40 1016.6
20260506013657 62 256 5.2 7.0 0.00 0.12 0.12 40 1016.7
20260506013154 63 9 7.8 9.6 0.00 0.12 0.12 39 1016.7
20260506012650 63 1 8.7 9.6 0.00 0.12 0.12 38 1016.4
20260506012147 63 2 4.3 6.1 0.00 0.12 0.12 38 1016.3
20260506011639 63 26 5.2 7.0 0.00 0.12 0.12 39 1016.3
20260506011136 64 302 6.1 11.3 0.00 0.12 0.12 38 1016.4
20260506010635 64 27 7.0 11.3 0.00 0.12 0.12 38 1016.3
20260506010131 64 317 6.1 7.0 0.00 0.12 0.12 38 1016.2
20260506005628 65 14 4.3 7.0 0.00 0.12 0.12 37 1016.0
20260506005124 65 359 7.0 7.8 0.00 0.12 0.12 36 1016.0
20260506004621 65 52 7.0 8.7 0.00 0.12 0.12 36 1015.9
20260506004118 65 345 4.3 7.0 0.00 0.12 0.12 36 1016.0
20260506003614 65 333 4.3 6.1 0.00 0.12 0.12 36 1016.0
20260506003110 65 26 7.0 8.7 0.00 0.12 0.12 37 1015.8
20260506002606 66 352 4.3 6.1 0.00 0.12 0.12 36 1015.8
20260506002102 67 17 5.2 6.1 0.00 0.12 0.12 36 1015.7
20260506001559 67 309 2.6 4.3 0.00 0.12 0.12 35 1015.7
20260506001056 67 264 0.9 0.9 0.00 0.12 0.12 32 1015.6
20260506000553 67 293 3.5 4.3 0.00 0.12 0.12 32 1015.7
20260506000051 67 266 2.6 2.6 0.00 0.12 0.12 32 1015.7
20260505235548 67 0 1.7 1.7 0.00 0.12 0.12 32 1015.6
20260505235045 68 295 4.3 5.2 0.00 0.12 0.12 31 1015.5
20260505234542 67 243 1.7 1.7 0.00 0.12 0.12 31 1015.1
20260505234039 67 26 1.7 2.6 0.00 0.12 0.12 31 1015.4
20260505233536 68 19 0.9 1.7 0.00 0.12 0.12 31 1015.5
20260505233034 67 111 0.0 0.0 0.00 0.12 0.12 36 1015.6
20260505232531 68 107 0.0 0.9 0.00 0.12 0.12 35 1015.7
20260505232029 67 327 0.0 0.9 0.00 0.12 0.12 34 1015.4
20260505231525 66 206 2.6 2.6 0.00 0.12 0.12 36 1015.8
20260505231024 67 227 1.7 1.7 0.00 0.12 0.12 37 1015.6
20260505230521 68 249 0.9 1.7 0.00 0.12 0.12 36 1016.0
20260505230018 68 250 1.7 1.7 0.00 0.12 0.12 34 1015.8
20260505225514 67 311 0.0 0.9 0.00 0.12 0.12 35 1015.7
20260505225010 67 27 2.6 4.3 0.00 0.12 0.12 36 1015.9
20260505224508 67 280 0.9 2.6 0.00 0.12 0.12 39 1015.9
20260505224005 65 152 0.9 1.7 0.00 0.12 0.12 39 1016.2
20260505223502 66 82 0.9 1.7 0.00 0.12 0.12 36 1015.9
20260505222958 66 308 1.7 1.7 0.00 0.12 0.12 39 1016.3
20260505222455 65 90 0.9 1.7 0.00 0.12 0.12 39 1016.3
20260505221950 66 340 0.9 1.7 0.00 0.12 0.12 41 1016.2
20260505221448 67 202 0.0 0.0 0.00 0.12 0.12 44 1016.4
20260505220945 65 143 4.3 5.2 0.00 0.12 0.12 39 1016.3
20260505220441 64 216 0.9 0.9 0.00 0.12 0.12 38 1016.4
20260505215939 64 319 4.3 5.2 0.00 0.12 0.12 42 1016.5
20260505215437 66 216 0.0 0.9 0.00 0.12 0.12 40 1016.4
20260505214935 65 216 0.9 0.9 0.00 0.12 0.12 42 1016.6
20260505214432 65 192 0.0 0.9 0.00 0.12 0.12 43 1016.5
20260505213929 64 172 0.9 1.7 0.00 0.12 0.12 44 1016.7
20260505213427 64 227 1.7 1.7 0.00 0.12 0.12 45 1016.8
20260505212923 64 248 1.7 2.6 0.00 0.12 0.12 46 1016.8
20260505212420 63 27 2.6 2.6 0.00 0.12 0.12 46 1016.7
20260505211916 62 315 3.5 4.3 0.00 0.12 0.12 44 1017.0
20260505211414 63 118 0.9 1.7 0.00 0.12 0.12 45 1017.2
20260505210910 62 142 2.6 2.6 0.00 0.12 0.12 45 1016.8
20260505210408 63 185 0.9 0.9 0.00 0.12 0.12 45 1017.1
20260505205904 63 196 0.0 0.9 0.00 0.12 0.12 44 1016.8
20260505205403 62 178 1.7 1.7 0.00 0.12 0.12 49 1017.1
20260505204859 62 234 3.5 4.3 0.00 0.12 0.12 43 1017.2
20260505204357 63 239 3.5 4.3 0.00 0.12 0.12 46 1017.1
20260505203854 62 196 1.7 2.6 0.00 0.12 0.12 46 1017.2
20260505203350 64 205 3.5 5.2 0.00 0.12 0.12 45 1017.2
20260505202847 63 196 0.9 0.9 0.00 0.12 0.12 52 1017.0
20260505202343 62 266 0.0 0.9 0.00 0.12 0.12 57 1017.0
20260505201840 63 58 2.6 2.6 0.00 0.12 0.12 46 1017.1
20260505201337 62 185 0.0 0.0 0.00 0.12 0.12 56 1017.1
20260505200836 60 25 1.7 1.7 0.00 0.12 0.12 51 1017.3
20260505200332 60 31 0.9 0.9 0.00 0.12 0.12 51 1017.3
20260505195827 62 8 2.6 2.6 0.00 0.12 0.12 54 1017.5
20260505195325 61 174 1.7 1.7 0.00 0.12 0.12 52 1017.9
20260505194822 60 221 0.9 1.7 0.00 0.12 0.12 50 1017.7
20260505194319 59 330 2.6 4.3 0.00 0.12 0.12 54 1017.6
20260505193814 60 74 0.0 0.9 0.00 0.12 0.12 55 1017.5
20260505193312 59 355 0.9 1.7 0.00 0.12 0.12 55 1017.6
20260505192810 60 73 0.0 0.0 0.00 0.12 0.12 57 1017.7
20260505192310 60 124 1.7 2.6 0.00 0.12 0.12 55 1018.0
20260505191806 58 16 0.9 0.9 0.00 0.12 0.12 54 1017.7
20260505191304 58 22 1.7 1.7 0.00 0.12 0.12 57 1017.6
20260505190800 59 96 1.7 1.7 0.00 0.12 0.12 54 1017.5
20260505190255 59 110 0.9 1.7 0.00 0.12 0.12 54 1017.6
20260505185752 59 144 1.7 2.6 0.00 0.12 0.12 53 1017.9
20260505185248 57 143 0.9 0.9 0.00 0.12 0.12 56 1018.0
20260505184744 58 111 0.9 1.7 0.00 0.12 0.12 58 1017.9
20260505184242 57 116 0.0 0.0 0.00 0.12 0.12 57 1017.7
20260505183738 56 104 1.7 2.6 0.00 0.12 0.12 59 1017.4
20260505183236 56 86 1.7 1.7 0.00 0.12 0.12 56 1017.7
20260505182732 57 121 0.0 0.9 0.00 0.12 0.12 55 1017.9
20260505182229 56 3 1.7 1.7 0.00 0.12 0.12 62 1017.6
20260505181725 57 108 0.9 0.9 0.00 0.12 0.12 59 1017.6
20260505181223 57 119 0.9 0.9 0.00 0.12 0.12 60 1017.4
20260505180719 56 105 2.6 2.6 0.00 0.12 0.12 60 1017.5
20260505180216 57 126 0.9 0.9 0.00 0.12 0.12 57 1017.5
20260505175712 57 162 0.9 1.7 0.00 0.12 0.12 60 1017.3
20260505175209 56 197 0.0 0.0 0.00 0.12 0.12 57 1017.3
20260505174705 56 207 0.0 0.0 0.00 0.12 0.12 55 1017.1
20260505174202 54 73 0.9 1.7 0.00 0.12 0.12 58 1017.3
20260505173658 55 75 0.0 0.0 0.00 0.12 0.12 61 1017.1
20260505173155 54 81 0.9 0.9 0.00 0.12 0.12 64 1017.1
20260505172653 54 57 0.0 0.0 0.00 0.12 0.12 63 1017.2
20260505172149 53 13 2.6 2.6 0.00 0.12 0.12 63 1017.3
20260505171649 54 19 2.6 4.3 0.00 0.12 0.12 65 1017.2
20260505171146 55 35 2.6 4.3 0.00 0.12 0.12 64 1017.1
20260505170644 54 306 0.0 0.0 0.00 0.12 0.12 65 1017.1
20260505170141 53 249 0.0 0.0 0.00 0.12 0.12 63 1017.2
20260505165640 52 251 0.0 0.0 0.00 0.12 0.12 62 1017.1
20260505165137 51 251 0.0 0.0 0.00 0.12 0.12 65 1017.0
20260505164632 51 296 1.7 1.7 0.00 0.12 0.12 68 1016.8
20260505164130 51 265 0.9 0.9 0.00 0.12 0.12 71 1017.0
20260505163628 51 295 2.6 2.6 0.00 0.12 0.12 71 1016.8
20260505163126 50 267 1.7 2.6 0.00 0.12 0.12 70 1017.0
20260505162623 50 330 1.7 4.3 0.00 0.12 0.12 73 1016.8
20260505162120 50 327 2.6 2.6 0.00 0.12 0.12 72 1016.7
20260505161617 50 338 0.0 0.9 0.00 0.12 0.12 74 1016.7
20260505161115 50 16 1.7 4.3 0.00 0.12 0.12 74 1016.6
20260505160612 50 331 2.6 2.6 0.00 0.12 0.12 73 1016.4
20260505160109 50 359 2.6 4.3 0.00 0.12 0.12 74 1016.8
20260505153049 49 303 3.5 4.3 0.00 0.12 0.12 77 1016.6
20260505152546 49 327 3.5 4.3 0.00 0.12 0.12 79 1016.2
20260505152041 48 320 2.6 2.6 0.00 0.12 0.12 79 1016.4
20260505151536 48 316 1.7 1.7 0.00 0.12 0.12 80 1016.3
20260505151034 48 293 1.7 2.6 0.00 0.12 0.12 79 1016.4
20260505150531 48 350 2.6 2.6 0.00 0.12 0.12 78 1015.8
20260505140455 46 289 1.7 2.6 0.00 0.12 0.12 88 1015.8
20260505124909 45 339 2.6 5.2 0.07 0.10 0.10 89 1015.0
20260505124406 45 37 0.0 0.0 0.00 0.09 0.09 92 1015.1
20260505123902 45 284 2.6 2.6 0.00 0.09 0.09 92 1015.4
20260505123359 45 239 0.9 1.7 0.00 0.09 0.09 92 1015.1
20260505122854 45 265 1.7 2.6 0.00 0.09 0.09 93 1015.1
20260505122352 45 186 0.0 0.0 0.00 0.09 0.09 93 1015.3
20260505121849 45 187 0.0 0.0 0.00 0.09 0.09 93 1015.1
20260505121346 45 187 0.0 0.0 0.00 0.09 0.09 93 1015.0
20260505120842 44 187 0.0 0.0 0.00 0.09 0.09 92 1015.1
20260505120338 45 187 0.0 0.0 0.00 0.09 0.09 92 1014.9
20260505115837 44 187 0.0 0.0 0.00 0.09 0.09 92 1014.9
20260505115334 45 187 0.0 0.0 0.00 0.09 0.09 92 1015.1
20260505114832 44 187 0.0 0.0 0.00 0.09 0.09 92 1015.4